Atmospheric History
02/08/2018 18:05  to  2/9/2018 18:05
Change End Date:
To complete the export process:
1) Select all of the data below
2) Copy the data to the clipboard
3) Open a word processor such as Notepad
4) Paste the data into the word processor
5) Save the file

Date/Time (MDT), AirTemp, RH, Dewpoint ,AvgWindSpeed, GustWindSpeed, WindDirection, PrecipType, PrecipIntensity, PrecipAccumulation, PrecipRate
02/09/2018 18:01, -8, 81, -12 ,12, 14, SW, None, None, ,  
02/09/2018 17:53, -8, 82, -12 ,12, 14, SW, None, None, ,  
02/09/2018 17:51, -8, 82, -12 ,12, 14, S, None, None, ,  
02/09/2018 17:41, -9, 81, -13 ,11, 13, SW, None, None, ,  
02/09/2018 17:38, -9, 81, -13 ,11, 13, SW, None, None, ,  
02/09/2018 17:31, -9, 81, -13 ,9, 13, SW, None, None, ,  
02/09/2018 17:23, -8, 82, -12 ,11, 14, SW, None, None, ,  
02/09/2018 17:21, -8, 82, -12 ,12, 14, SW, None, None, ,  
02/09/2018 17:11, -8, 80, -13 ,10, 12, SW, None, None, ,  
02/09/2018 17:08, -8, 79, -13 ,7, 10, SW, None, None, ,  
02/09/2018 17:01, -8, 78, -13 ,6, 10, SW, None, None, ,  
02/09/2018 16:53, -7, 78, -12 ,2, 4, SW, None, None, ,  
02/09/2018 16:50, -7, 77, -12 ,2, 6, SW, None, None, ,  
02/09/2018 16:40, -5, 76, -11 ,5, 6, SW, None, None, ,  
02/09/2018 16:38, -5, 76, -11 ,5, 6, W, None, None, ,  
02/09/2018 16:30, -4, 77, -10 ,6, 7, W, None, None, ,  
02/09/2018 16:23, -4, 76, -10 ,6, 7, W, None, None, ,  
02/09/2018 16:20, -4, 76, -10 ,6, 7, W, None, None, ,  
02/09/2018 16:10, -4, 77, -9 ,6, 7, W, None, None, ,  
02/09/2018 16:08, -4, 77, -9 ,7, 8, W, None, None, ,  
02/09/2018 16:00, -3, 77, -9 ,7, 11, W, None, None, ,  
02/09/2018 15:53, -3, 77, -9 ,7, 10, W, None, None, ,  
02/09/2018 15:50, -3, 76, -9 ,6, 9, W, None, None, ,  
02/09/2018 15:40, -3, 77, -9 ,7, 8, W, None, None, ,  
02/09/2018 15:38, -3, 77, -9 ,6, 7, W, None, None, ,  
02/09/2018 15:30, -3, 78, -9 ,6, 9, W, None, None, ,  
02/09/2018 15:23, -3, 78, -8 ,6, 12, W, None, None, ,  
02/09/2018 15:20, -3, 78, -8 ,7, 12, W, None, None, ,  
02/09/2018 15:10, -3, 79, -8 ,6, 12, W, None, None, ,  
02/09/2018 15:08, -3, 79, -8 ,6, 12, W, None, None, ,  
02/09/2018 15:00, -3, 80, -7 ,7, 13, W, None, None, ,  
02/09/2018 14:53, -3, 80, -8 ,9, 14, W, None, None, ,  
02/09/2018 14:50, -3, 80, -8 ,7, 14, W, None, None, ,  
02/09/2018 14:40, -3, 80, -8 ,9, 13, W, None, None, ,  
02/09/2018 14:38, -3, 80, -8 ,8, 13, W, None, None, ,  
02/09/2018 14:30, -3, 80, -8 ,7, 10, W, None, None, ,  
02/09/2018 14:23, -3, 80, -8 ,7, 11, W, None, None, ,  
02/09/2018 14:20, -3, 80, -8 ,7, 11, W, None, None, ,  
02/09/2018 14:10, -3, 80, -8 ,7, 12, W, None, None, ,  
02/09/2018 14:08, -3, 80, -8 ,7, 12, W, None, None, ,  
02/09/2018 14:00, -3, 80, -8 ,7, 12, W, None, None, ,  
02/09/2018 13:53, -3, 80, -7 ,7, 9, W, None, None, ,  
02/09/2018 13:50, -3, 80, -8 ,6, 7, W, None, None, ,  
02/09/2018 13:40, -3, 80, -8 ,6, 12, W, None, None, ,  
02/09/2018 13:38, -3, 80, -8 ,7, 12, W, None, None, ,  
02/09/2018 13:30, -3, 80, -8 ,7, 12, W, None, None, ,  
02/09/2018 13:23, -3, 80, -8 ,7, 14, W, None, None, ,  
02/09/2018 13:20, -3, 80, -8 ,7, 14, W, None, None, ,  
02/09/2018 13:10, -3, 80, -8 ,7, 12, W, None, None, ,  
02/09/2018 13:08, -3, 80, -8 ,6, 12, W, None, None, ,  
02/09/2018 13:00, -3, 80, -8 ,6, 8, W, None, None, ,  
02/09/2018 12:53, -3, 80, -8 ,7, 7, SW, None, None, ,  
02/09/2018 12:50, -3, 80, -8 ,6, 7, SW, None, None, ,  
02/09/2018 12:39, -4, 80, -9 ,3, 4, SW, None, None, ,  
02/09/2018 12:38, -4, 80, -9 ,3, 4, SW, None, None, ,  
02/09/2018 12:29, -4, 80, -9 ,3, 6, SW, None, None, ,  
02/09/2018 12:23, -5, 80, -9 ,2, 7, SW, None, None, ,  
02/09/2018 12:19, -5, 79, -10 ,4, 7, SW, None, None, ,  
02/09/2018 12:09, -5, 79, -10 ,3, 6, SW, None, None, ,  
02/09/2018 12:08, -5, 79, -10 ,4, 6, SW, None, None, ,  
02/09/2018 11:59, -5, 79, -10 ,2, 6, SW, None, None, ,  
02/09/2018 11:53, -4, 80, -9 ,4, 6, SW, None, None, ,  
02/09/2018 11:49, -5, 80, -9 ,2, 4, SW, None, None, ,  
02/09/2018 11:39, -5, 80, -9 ,2, 4, SW, None, None, ,  
02/09/2018 11:38, -5, 80, -9 ,2, 4, SW, None, None, ,  
02/09/2018 11:29, -7, 79, -12 ,4, 6, W, None, None, ,  
02/09/2018 11:23, -7, 79, -12 ,5, 6, W, None, None, ,  
02/09/2018 11:19, -7, 79, -11 ,4, 6, W, None, None, ,  
02/09/2018 11:09, -6, 79, -11 ,2, 5, W, None, None, ,  
02/09/2018 11:08, -6, 79, -11 ,3, 5, W, None, None, ,  
02/09/2018 10:59, -8, 78, -13 ,1, 4, W, None, None, ,  
02/09/2018 10:53, -9, 78, -14 ,0, 0, SW, None, None, ,  
02/09/2018 10:49, -9, 78, -14 ,0, 0, SW, None, None, ,  
02/09/2018 10:39, -9, 78, -14 ,0, 0, SW, None, None, ,  
02/09/2018 10:38, -9, 78, -14 ,0, 0, SW, None, None, ,  
02/09/2018 10:29, -9, 78, -14 ,0, 0, SW, None, None, ,  
02/09/2018 10:23, -9, 78, -14 ,0, 0, SW, None, None, ,  
02/09/2018 10:19, -9, 78, -14 ,0, 0, SW, None, None, ,  
02/09/2018 10:09, -9, 78, -14 ,0, 1, SW, None, None, ,  
02/09/2018 10:08, -9, 78, -14 ,0, 1, SW, None, None, ,  
02/09/2018 09:59, -7, 79, -12 ,0, 1, S, None, None, ,  
02/09/2018 09:53, -7, 79, -12 ,0, 1, S, None, None, ,  
02/09/2018 09:49, -7, 80, -12 ,0, 1, S, None, None, ,  
02/09/2018 09:39, -10, 78, -15 ,0, 0, S, None, None, ,  
02/09/2018 09:38, -10, 78, -15 ,0, 0, S, None, None, ,  
02/09/2018 09:29, -10, 78, -15 ,0, 0, S, None, None, ,  
02/09/2018 09:23, -10, 77, -15 ,0, 0, S, None, None, ,  
02/09/2018 09:19, -9, 77, -15 ,0, 0, S, None, None, ,  
02/09/2018 09:09, -7, 80, -11 ,0, 0, S, None, None, ,  
02/09/2018 09:08, -6, 80, -11 ,0, 1, S, None, None, ,  
02/09/2018 08:59, -8, 79, -13 ,1, 1, S, None, None, ,  
02/09/2018 08:53, -9, 79, -13 ,1, 1, S, None, None, ,  
02/09/2018 08:49, -9, 79, -14 ,1, 1, S, None, None, ,  
02/09/2018 08:38, -9, 80, -14 ,0, 1, S, None, None, ,  
02/09/2018 08:38, -9, 80, -14 ,0, 1, S, None, None, ,  
02/09/2018 08:28, -12, 78, -17 ,1, 1, S, None, None, ,  
02/09/2018 08:23, -13, 78, -18 ,0, 0, S, None, None, ,  
02/09/2018 08:18, -13, 77, -18 ,0, 0, S, None, None, ,  
02/09/2018 08:08, -12, 78, -17 ,0, 0, S, None, None, ,  
02/09/2018 08:08, -12, 78, -17 ,0, 0, S, None, None, ,  
02/09/2018 07:58, -12, 78, -17 ,0, 4, S, None, None, ,  
02/09/2018 07:53, -12, 78, -17 ,1, 5, S, None, None, ,  
02/09/2018 07:48, -12, 78, -16 ,4, 5, S, None, None, ,  
02/09/2018 07:38, -12, 79, -16 ,1, 1, S, None, None, ,  
02/09/2018 07:38, -12, 79, -16 ,1, 1, S, None, None, ,  
02/09/2018 07:28, -13, 78, -18 ,1, 1, S, None, None, ,  
02/09/2018 07:23, -13, 78, -18 ,1, 1, S, None, None, ,  
02/09/2018 07:18, -13, 78, -18 ,1, 1, S, None, None, ,  
02/09/2018 07:08, -13, 78, -18 ,0, 1, S, None, None, ,  
02/09/2018 07:08, -13, 78, -18 ,0, 1, S, None, None, ,  
02/09/2018 06:58, -13, 78, -18 ,0, 0, S, None, None, ,  
02/09/2018 06:53, -12, 78, -17 ,0, 0, S, None, None, ,  
02/09/2018 06:48, -12, 79, -17 ,0, 1, S, None, None, ,  
02/09/2018 06:38, -14, 78, -19 ,0, 0, SW, None, None, ,  
02/09/2018 06:38, -14, 78, -19 ,0, 0, SW, None, None, ,  
02/09/2018 06:28, -15, 76, -20 ,1, 1, S, None, None, ,  
02/09/2018 06:23, -12, 79, -17 ,0, 1, NW, None, None, ,  
02/09/2018 06:18, -12, 79, -17 ,0, 1, N, None, None, ,  
02/09/2018 06:08, -13, 78, -18 ,0, 0, NW, None, None, ,  
02/09/2018 06:08, -13, 78, -18 ,0, 0, NW, None, None, ,  
02/09/2018 05:58, -13, 78, -18 ,0, 0, NW, None, None, ,  
02/09/2018 05:53, -14, 77, -18 ,0, 0, NW, None, None, ,  
02/09/2018 05:48, -13, 78, -18 ,0, 0, NW, None, None, ,  
02/09/2018 05:38, -13, 78, -18 ,0, 0, NW, None, None, ,  
02/09/2018 05:38, -13, 78, -18 ,0, 0, NW, None, None, ,  
02/09/2018 05:28, -12, 78, -17 ,0, 0, W, None, None, ,  
02/09/2018 05:23, -12, 78, -17 ,0, 0, W, None, None, ,  
02/09/2018 05:18, -12, 79, -17 ,0, 0, W, None, None, ,  
02/09/2018 05:08, -13, 78, -18 ,0, 0, SW, None, None, ,  
02/09/2018 05:08, -14, 77, -19 ,0, 0, SW, None, None, ,  
02/09/2018 04:58, -12, 78, -17 ,0, 0, W, None, None, ,  
02/09/2018 04:53, -12, 78, -17 ,0, 0, W, None, None, ,  
02/09/2018 04:48, -13, 78, -18 ,0, 0, W, None, None, ,  
02/09/2018 04:38, -14, 77, -19 ,0, 0, W, None, None, ,  
02/09/2018 04:37, -14, 77, -19 ,0, 0, W, None, None, ,  
02/09/2018 04:27, -13, 77, -19 ,0, 0, W, None, None, ,  
02/09/2018 04:23, -13, 77, -18 ,0, 0, W, None, None, ,  
02/09/2018 04:17, -12, 79, -16 ,0, 0, W, None, None, ,  
02/09/2018 04:08, -12, 78, -17 ,0, 0, SW, None, None, ,  
02/09/2018 04:07, -12, 78, -17 ,0, 0, SW, None, None, ,  
02/09/2018 03:57, -11, 79, -15 ,0, 0, SW, None, None, ,  
02/09/2018 03:53, -12, 79, -16 ,0, 0, SW, None, None, ,  
02/09/2018 03:47, -12, 79, -16 ,0, 0, SW, None, None, ,  
02/09/2018 03:38, -11, 79, -16 ,0, 0, W, None, None, ,  
02/09/2018 03:37, -11, 79, -16 ,0, 0, W, None, None, ,  
02/09/2018 03:27, -11, 80, -15 ,0, 0, W, None, None, ,  
02/09/2018 03:23, -12, 79, -16 ,0, 0, W, None, None, ,  
02/09/2018 03:17, -13, 79, -17 ,0, 0, N, None, None, ,  
02/09/2018 03:08, -12, 79, -17 ,0, 0, N, None, None, ,  
02/09/2018 03:07, -12, 79, -17 ,0, 0, N, None, None, ,  
02/09/2018 02:57, -13, 77, -18 ,0, 0, N, None, None, ,  
02/09/2018 02:53, -11, 79, -16 ,0, 0, N, None, None, ,  
02/09/2018 02:47, -10, 79, -15 ,0, 0, N, None, None, ,  
02/09/2018 02:38, -10, 80, -14 ,0, 0, N, None, None, ,  
02/09/2018 02:37, -10, 80, -14 ,0, 0, N, None, None, ,  
02/09/2018 02:27, -10, 80, -15 ,0, 0, N, None, None, ,  
02/09/2018 02:23, -10, 80, -14 ,0, 0, N, None, None, ,  
02/09/2018 02:17, -10, 80, -14 ,0, 0, N, None, None, ,  
02/09/2018 02:08, -10, 79, -15 ,0, 0, N, None, None, ,  
02/09/2018 02:07, -10, 79, -15 ,0, 0, N, None, None, ,  
02/09/2018 01:57, -10, 80, -14 ,0, 0, N, None, None, ,  
02/09/2018 01:53, -9, 80, -14 ,0, 0, N, None, None, ,  
02/09/2018 01:47, -10, 79, -14 ,0, 0, N, None, None, ,  
02/09/2018 01:38, -9, 80, -14 ,0, 0, N, None, None, ,  
02/09/2018 01:37, -9, 80, -13 ,0, 0, N, None, None, ,  
02/09/2018 01:27, -9, 80, -13 ,0, 1, N, None, None, ,  
02/09/2018 01:23, -9, 80, -13 ,0, 1, N, None, None, ,  
02/09/2018 01:17, -9, 81, -13 ,1, 1, N, None, None, ,  
02/09/2018 01:08, -10, 80, -15 ,0, 2, NW, None, None, ,  
02/09/2018 01:07, -10, 80, -15 ,0, 2, NW, None, None, ,  
02/09/2018 00:57, -10, 79, -15 ,1, 2, NW, None, None, ,  
02/09/2018 00:53, -8, 80, -13 ,0, 0, NW, None, None, ,  
02/09/2018 00:47, -8, 81, -13 ,0, 0, NW, None, None, ,  
02/09/2018 00:38, -9, 80, -13 ,0, 1, NW, None, None, ,  
02/09/2018 00:37, -9, 80, -13 ,0, 1, NW, None, None, ,  
02/09/2018 00:27, -8, 81, -12 ,0, 0, NW, None, None, ,  
02/09/2018 00:23, -7, 81, -12 ,0, 0, NW, None, None, ,  
02/09/2018 00:16, -8, 81, -12 ,0, 0, NW, None, None, ,  
02/09/2018 00:08, -8, 80, -13 ,0, 2, NW, None, None, ,  
02/09/2018 00:06, -8, 80, -13 ,0, 2, NW, None, None, ,  
02/08/2018 23:56, -7, 82, -11 ,0, 0, NW, None, None, ,  
02/08/2018 23:53, -7, 82, -11 ,0, 0, NW, None, None, ,  
02/08/2018 23:46, -6, 82, -10 ,0, 2, NW, None, None, ,  
02/08/2018 23:38, -7, 82, -11 ,0, 0, NW, None, None, ,  
02/08/2018 23:36, -7, 82, -11 ,0, 0, NW, None, None, ,  
02/08/2018 23:26, -7, 81, -12 ,0, 2, N, None, None, ,  
02/08/2018 23:23, -7, 82, -11 ,0, 3, NW, None, None, ,  
02/08/2018 23:16, -7, 82, -11 ,2, 3, N, None, None, ,  
02/08/2018 23:08, -6, 82, -10 ,2, 3, N, None, None, ,  
02/08/2018 23:06, -6, 82, -10 ,2, 3, N, None, None, ,  
02/08/2018 22:56, -5, 82, -9 ,1, 2, N, None, None, ,  
02/08/2018 22:53, -5, 83, -9 ,1, 2, N, None, None, ,  
02/08/2018 22:46, -6, 83, -9 ,2, 3, N, None, None, ,  
02/08/2018 22:38, -5, 83, -9 ,3, 4, N, None, None, ,  
02/08/2018 22:36, -5, 83, -9 ,3, 3, N, None, None, ,  
02/08/2018 22:26, -4, 83, -8 ,2, 3, N, None, None, ,  
02/08/2018 22:23, -4, 82, -8 ,2, 3, N, None, None, ,  
02/08/2018 22:16, -3, 83, -7 ,2, 3, N, None, None, ,  
02/08/2018 22:08, -3, 83, -7 ,2, 3, N, None, None, ,  
02/08/2018 22:06, -3, 83, -7 ,2, 3, N, None, None, ,  
02/08/2018 21:56, -3, 82, -7 ,4, 4, N, None, None, ,  
02/08/2018 21:53, -3, 82, -7 ,4, 4, N, None, None, ,  
02/08/2018 21:46, -2, 82, -6 ,4, 9, N, None, None, ,  
02/08/2018 21:38, -2, 82, -6 ,4, 9, N, None, None, ,  
02/08/2018 21:36, -2, 82, -6 ,4, 6, N, None, None, ,  
02/08/2018 21:26, -2, 82, -6 ,4, 8, N, None, None, ,  
02/08/2018 21:24, -2, 82, -6 ,4, 5, N, None, None, ,  
02/08/2018 21:16, -1, 82, -5 ,4, 9, N, None, None, ,  
02/08/2018 21:09, -1, 82, -5 ,4, 9, N, None, None, ,  
02/08/2018 21:06, -1, 82, -5 ,4, 9, N, None, None, ,  
02/08/2018 20:56, -1, 83, -5 ,6, 11, N, None, None, ,  
02/08/2018 20:54, -1, 83, -5 ,6, 11, N, None, None, ,  
02/08/2018 20:46, -1, 82, -5 ,6, 9, N, None, None, ,  
02/08/2018 20:39, -1, 83, -5 ,4, 10, N, None, None, ,  
02/08/2018 20:36, -1, 83, -5 ,6, 10, N, None, None, ,  
02/08/2018 20:26, -1, 83, -5 ,5, 9, N, None, None, ,  
02/08/2018 20:24, 0, 83, -4 ,5, 9, N, None, None, ,  
02/08/2018 20:15, 0, 83, -4 ,3, 10, N, None, None, ,  
02/08/2018 20:09, 0, 83, -4 ,4, 9, N, None, None, ,  
02/08/2018 20:05, 0, 83, -4 ,6, 10, N, None, None, ,  
02/08/2018 19:55, 0, 83, -4 ,9, 11, N, None, None, ,  
02/08/2018 19:54, 0, 83, -4 ,9, 11, N, None, None, ,  
02/08/2018 19:45, 0, 83, -4 ,9, 12, N, None, None, ,  
02/08/2018 19:39, 0, 83, -4 ,9, 12, N, None, None, ,  
02/08/2018 19:35, 0, 83, -4 ,12, 12, N, None, None, ,  
02/08/2018 19:25, 1, 84, -3 ,7, 10, N, None, None, ,  
02/08/2018 19:23, 1, 83, -3 ,6, 10, N, None, None, ,  
02/08/2018 19:15, 1, 82, -3 ,4, 11, N, None, None, ,  
02/08/2018 19:08, 1, 82, -3 ,7, 11, N, None, None, ,  
02/08/2018 19:05, 1, 82, -3 ,9, 11, N, None, None, ,  
02/08/2018 18:55, 1, 82, -3 ,10, 12, N, None, None, ,  
02/08/2018 18:53, 1, 82, -3 ,9, 11, N, None, None, ,  
02/08/2018 18:45, 1, 82, -3 ,9, 12, N, None, None, ,  
02/08/2018 18:38, 2, 82, -3 ,9, 12, N, None, None, ,  
02/08/2018 18:35, 2, 82, -3 ,11, 12, N, None, None, ,  
02/08/2018 18:25, 2, 82, -3 ,11, 14, N, None, None, ,  
02/08/2018 18:23, 2, 82, -3 ,7, 14, N, None, None, ,  
02/08/2018 18:15, 2, 82, -2 ,9, 15, N, None, None, ,  
02/08/2018 18:08, 2, 82, -3 ,13, 15, N, None, None, ,  
02/08/2018 18:05, 2, 83, -2 ,11, 15, N, None, None, ,  
Change End Date:

Copyright © 1998-2015 Vaisala, Inc.
All Rights Reserved
Send comments about the data to:
SCAN Web ® is a registered trademark of Vaisala, Inc.
SCAN Web Version 6.0